Погода в Шарковщине

Погода в Шарковщине : погода сейчас, прогноз погоды и архив. Всё, что Вы хотите узнать о погоде в Шарковщине!

Хотите узнать прогноз погоды в Шарковщине? Тогда Вам сюда: Погода в Шарковщине

Поиск расширенной информации на нашем сайте:

Другие новости

Новости СМИ2

Главная страница сайта

Новости сайта

03.07.2017

Напоминаем, что на нашем специализированном сайте Метеоцентр.Азия вы можете получить высокодетализированные автоматические прогнозы погоды по пунктам России, СНГ и мира в авиационном формате (включающие направление и скорость ветра, видимость, явления погоды, количество и форму облачности, нижнюю и верхнюю границу облачности).


Погода в Шарковщине - сегодня

Время (UTC), дата Ветер
(°,м/с) 
Видим.   Явления Облачность Т
(°С)
Тd
(°С)
f(%) Тe
(°С)
Pmin
(гПа)
dP
(гПа)
Po
(мм)
O2
(г/м3)
Тmin Tmax R s Состояние
почвы
09 11.12.17 120 (ЮВ) 12000 м  [диам. отлож. мокр. снега 12 мм]  10/0 средняя 
[Ac As]
-2.4 -3.3 94 -3  1001.6  0.6  739  301           
12 11.12.17 160 (Ю) 17000 м  [диам. отлож. мокр. снега 12 мм]  10/0 средняя 
[Ac As]
-1.6 -3.3 88 -3  1001.3  -0.3  739  300           
18 11.12.17 160 (Ю) 17000 м  {ливн. осадки}  10/10 300 м 
[St]
-0.7 -2 91 -3  1003.4  1.1  740  299    -0.6  0.0   
21 11.12.17 160 (Ю) 14000 м    10/10 300 м 
[St]
-0.1 -1.2 92 -1  1003.2  -0.1  740  298           
00 12.12.17 140 (ЮВ) 12000 м    10/10 300 м 
[St]
+0.5 -0.3 94 1003.1  -0.1  740  298           
03 12.12.17 140 (ЮВ) 11000 м    10/10 300 м 
[St]
+0.5 -0.1 96 -1  1001.9  -1.2  739  297         
06 12.12.17 160 (Ю) 15000 м    9/9 600 м 
[Sc]
+0.4 -0.5 94 -2  1001.4  -0.5  739  297  -0.7      равномерный
мокрый или
старый снег
100% 
09 12.12.17 160 (Ю) 4{10}  14000 м    9/9 600 м 
[Sc]
+0.8 +0.3 96 -2  1000.1  -1.3  738  296           
12 12.12.17 190 (Ю) 17000 м    10/4 300 м средняя 
[Sc|Ac und]
+1.8 +0.7 92 998  -2  736  295           
15 12.12.17 190 (Ю) 16000 м    9/9 600 м 
[Sc]
+3.3 +2 91 +1  998.8  0.9  737  293           
18 12.12.17 200 (Ю) 18000 м    3/3 600 м 
[Sc diur, vesp]
+2.9 +2.1 94 +2  999.6  0.8  738  294    +3.9     
21 12.12.17 180 (Ю) 20000 м    5/3 600 м средняя 
[Sc|Ac trans]
+4 +2.5 90 +4  1001.2  1.6  739  293           
00 13.12.17 250 (З) 5-10{11}  20000 м    8/8 600 м 
[Sc]
+4.5 +2.2 85 +2  1002.5  1.4  740  293           
03 13.12.17 230 (ЮЗ) 5-11{11}  20000 м    9/9 600 м 
[Sc]
+3.4 -2.3 66 +1  1004.7  741  295           
06 13.12.17 250 (З) 4{13}  20000 м    6/6 600 м 
[Sc]
+2.7 -2.2 70 +1  1007.2  2.5  743  297  +2.5         
09 13.12.17 260 (З) 21000 м    10/4 600 м средняя, верхняя 
[Sc|Ac trans|Ci fib]
+2.3 -1.4 76 1010  2.6  745  298           
12 13.12.17 250 (З) 4{10}  22000 м    4/4 600 м 
[Cu hum]
+1.8 -3.3 69 1011.3  1.3  746  299           
15 13.12.17 230 (ЮЗ) 20000 м    9/9 600 м 
[Sc]
+1.5 -2 78 +1  1012.2  0.9  747  300           
18 13.12.17 230 (ЮЗ) 18000 м    5/5 600 м 
[Sc]
-0.1 -2.2 86 +1  1012.3  747  301    +2.7       
21 13.12.17 190 (Ю) 14000 м    4/0 верхняя 
[Ci fib]
-2.2 -3.1 94 -2  1011.9  -0.6  746  304           
00 14.12.17 170 (Ю) 12000 м    ясно 
-3.3 -4 95 -3  1010.8  -1.1  746  305           
03 14.12.17 160 (Ю) 13000 м    ясно 
-3.6 -4.4 94 -5  1009  -1.8  744  304           
06 14.12.17 130 (ЮВ) 15000 м    10/0 средняя, верхняя 
[Ac lent|Ci fib]
-3.9 -5.4 89 -5  1006.8  -2.2  743  304  -4         
09 14.12.17 150 (ЮВ) 18000 м    9/9 600 м 
[Sc]
-2 -3.8 87 -4  1004.1  -2.6  741  301           
12 14.12.17 130 (ЮВ) 19000 м    10/10 300 м 
[St]
-0.9 -2.2 91 -3  1001  -2.9  739  299           
Время (UTC), дата Ветер
(°,м/с) 
Видим.   Явления Облачность Т
(°С)
Тd
(°С)
f(%) Тe
(°С)
Pmin
(гПа)
dP
(гПа)
Po
(мм)
O2
(г/м3)
Тmin Tmax R s Состояние
почвы

Для получения пояснительной информации подведите курсор к названию столбца.

ПОГОДА в Шарковщине - архив

Всё, что Вы хотите узнать о погоде в Шарковщине - удобно и подробно!

Выберите нужную дату (начиная с 1 января 2015* года) и нажмите кнопку "Найти".
Будут отображены архивные сводки погоды по пункту Шарковщина, начиная с указанной даты.


Отображать данные в формате CSV (для использования в таблицах Excel)


Внимание! Наш архив погоды предназначен исключительно для личного некоммерческого использования в познавательных целях. Если Вам необходимы официальные справки о состоянии погоды (для производственных, юридических, коммерческих и т.п. целей), обращайтесь в органы Росгидромета.

*Примечание: данная дата относится к архиву по метеостанциям СССР (Россия, СНГ, Балтия).
Архив по метеостанциям Зарубежной Европы и Азии (кроме Китая) хранится 10 дней, по другим регионам земного шара (Китай, Африка, Америка, Австралия, Океания) - 1 день.

Шарковщина - район местоположения метеостанции


Название, широта, долгота, высота метеостанции:
Шарковщина 55.4°ш. 27.5°д. 131 м над ур. моря [Беларусь]

Дополнительная информация

В oтличие oт бoльшинства пoгoдных сайтoв мы публикуем пoдрoбную метеoинфoрмацию в детальнoм прoфессиoнальнoм фoрмате.

Характеристики температуры и влажнoсти вoздуха измеряются на высoте 2 м в тени вдали oт зданий и деревьев.
Скoрoсть ветра измеряется на высoте 10 м (на урoвне рoста челoвека скoрoсть ветра ниже в 1.5-2 раза). Если метеoстанция нахoдится в гoрoде или в лесу, тo скoрoсть ветра занижена на 2-4 м/с пo сравнению с oткрытым местoм. Скoрoсть ветра над акватoриями крупных рек и oзёр, а также на вершинах хoлмoв на 2-5 м/с выше, чем в oбычных услoвиях.
Атмoсфернoе давление в разных тoчках местнoсти мoжет значительнo oтличаться oт давления на метеoстанции, в зависимoсти oт услoвий рельефа (при пoдъёме на 10 м давление пoнижается примернo на 1 мм рт.ст.).